Location: Ferintosh
(52.7647°N, 112.9692°W)
Time: 20:55:56
(UTC+00:00)

A-11 Canister half - Pass Details

Date: 21 May 2024
Orbit: 1524 x 1683 km, 47.3° (Epoch: 19 June)

Event Time Altitude Azimuth Distance (km) Brightness Sun altitude
Rises 07:23:36 0° 255° (WSW) 4,719 11.4 -16.9°
Reaches altitude 10° 07:26:39 10° 253° (WSW) 3,754 10.9 -16.9°
Maximum altitude 07:36:00 64° 175° (S) 1,746 9.0 -16.9°
Drops below altitude 10° 07:45:42 10° 97° (E) 3,880 11.1 -16.8°
Sets 07:48:55 0° 95° (E) 4,886 11.6 -16.8°
